Home > Weather > Mississauga > Past weeks

Flag for Canada Weather for the Past 2 Weeks in Mississauga, Ontario, Canada

Now
36 °F

Sprinkles. Mostly cloudy.


Feels Like: 26 °F
Forecast: N/A
Wind: 16 mph from East

Location: Toronto Pearson International Airport

Current Time: Feb 8, 2016 at 5:03:42 PM

Latest Report: Feb 8, 2016 at 4:00 PM


Visibility: 4 mi

Pressure: 29.64 "Hg

Humidity: 81%

Dew point: 30 °F

Location of MississaugaLocation

Historic Weather in Mississauga — Graph

°F

Mississauga Temperature Yesterday

Maximum temperature yesterday: 43 °F (at 2:00 PM)
Minimum temperature yesterday: 28 °F (at 2:00 AM)
Average temperature yesterday: 35 °F

High & Low Weather Summary for the Past Weeks

 TemperatureHumidityPressure
High61 °F (Feb 3, 2:00 PM)100% (Feb 3, 7:00 AM)30.36 "Hg (Feb 3, 7:00 AM)
Low16 °F (Jan 29, 8:00 PM)39% (Feb 3, 4:00 PM)29.44 "Hg (Jan 31, 11:00 PM)
Average34 °F71%29.91 "Hg
* Reported Jan 24 3:01 PM — Feb 8 3:00 PM, Mississauga, Weather by CustomWeather, © 2016

Note: Actual official high and low records may vary slightly from our data, if they occured in-between our weather recording intervals... More about our weather records

Advertising

Mississauga Weather History for the Previous 24 Hours

 ConditionsComfort  
Time TempWeatherWind HumidityBarometerVisibility
3:00 PM
Mon, Feb 8
37 °FSprinkles. Mostly cloudy.15 mph75%29.63 "Hg12 mi
2:52 PM37 °FSprinkles. Mostly cloudy.14 mph75%29.63 "Hg12 mi
2:00 PM39 °FCloudy.17 mph70%29.63 "Hg15 mi
1:00 PM39 °FMostly cloudy.20 mph70%29.64 "Hg15 mi
12:00 PM41 °FBroken clouds.13 mph70%29.67 "Hg15 mi
11:00 AM39 °FMore clouds than sun.14 mph75%29.69 "Hg15 mi
10:00 AM37 °FMostly cloudy.15 mph81%29.70 "Hg15 mi
9:00 AM36 °FLow clouds.14 mph87%29.71 "Hg12 mi
8:00 AM34 °FPartly sunny.10 mph87%29.71 "Hg8 mi
7:00 AM34 °FPassing clouds.12 mph87%29.72 "Hg10 mi
6:00 AM36 °FPartly cloudy.8 mph87%29.72 "Hg15 mi
5:00 AM36 °FLow clouds.10 mph87%29.72 "Hg15 mi
4:00 AM37 °FOvercast.10 mph81%29.74 "Hg15 mi
3:00 AM37 °FOvercast.8 mph87%29.76 "Hg15 mi
2:00 AM37 °FOvercast.8 mph81%29.77 "Hg15 mi
1:00 AM37 °FOvercast.7 mph81%29.79 "Hg15 mi
12:00 AM37 °FOvercast.7 mph81%29.82 "Hg15 mi
11:00 PM
Sun, Feb 7
39 °FMostly cloudy.5 mph75%29.84 "Hg15 mi
10:00 PM39 °FPassing clouds.9 mph75%29.85 "Hg15 mi
9:00 PM39 °FPartly cloudy.8 mph75%29.86 "Hg15 mi
8:00 PM39 °FPartly cloudy.8 mph75%29.89 "Hg15 mi
7:00 PM37 °FPartly cloudy.8 mph81%29.90 "Hg15 mi
6:00 PM39 °FPassing clouds.8 mph70%29.89 "Hg15 mi
5:00 PM39 °FBroken clouds.12 mph65%29.90 "Hg15 mi
Weather by CustomWeather, © 2016

See weather overviewHow to use our weather pages